Location: Bannatyne
(13.0833°N, 59.5333°W)
Time: 08:08:53
(UTC+00:00)

Vanguard 3 - Pass Details

Date: 24 January 2020
Orbit: 508 x 3263 km, 33.3° (Epoch: 17 February)

Event Time Altitude Azimuth Distance (km) Brightness Sun altitude
Rises 05:24:14 0° 298° (WNW) 5,035 - -71.1°
Reaches altitude 10° 05:28:21 10° 295° (WNW) 3,575 - -70.2°
Maximum altitude 05:36:28 58° 219° (SW) 1,079 - -68.4°
Drops below altitude 10° 05:41:16 10° 140° (SE) 2,142 - -67.3°
Sets 05:43:12 0° 135° (SE) 2,888 - -66.8°
